Regional Weather Roundup
Issued by NWS

Home | Current Version | Previous Version | Text Only | Print | Product List | Glossary Off
Versions: 1 2 3 4 5 6 7 8 9 10 11 12 13 14 15 16 17 18 19 20 21 22 23 24 25 26 27 28 29 30 31 32 33 34 35 36 37 38 39 40 41 42 43 44 45 46 47 48 49 50

000
ASUS43 KFSD 302302
RWRSD

WEATHER ROUNDUP FOR SOUTH DAKOTA
NATIONAL WEATHER SERVICE SIOUX FALLS SD
600 PM CDT THU JUL 30 2015

NOTE: "FAIR" INDICATES FEW OR NO CLOUDS BELOW 12,000 FEET WITH NO
SIGNIFICANT WEATHER AND/OR OBSTRUCTIONS TO VISIBILITY.


SDZ001>005-009-010-012>017-310000-
NORTHWEST AND NORTH CENTRAL SOUTH DAKOTA

CITY           SKY/WX    TMP DP  RH WIND       PRES   REMARKS
BUFFALO          N/A     89  39  17 NW20G25   30.13S
FAITH            N/A     90  36  14 W5        30.15F
MOBRIDGE       SUNNY     88  53  30 N13       30.09S
$$

SDZ012>016-024>037-041>051-057-063-072>074-310000-
SOUTHWEST AND SOUTH CENTRAL SOUTH DAKOTA

CITY           SKY/WX    TMP DP  RH WIND       PRES   REMARKS
RAPID CTY ARPT SUNNY     87  45  23 W5        30.22S
PIERRE         SUNNY     91  44  19 VRB5      30.10F
CUSTER         MOSUNNY   77  44  30 SE7       30.36S
ELLSWORTH AFB  SUNNY     87  43  21 W5        30.21S HAZE
PHILIP         SUNNY     90  46  21 W5        30.15F
PINE RIDGE     SUNNY     89  43  20 N7        30.21F
WINNER         FAIR      91  48  22 NW9       30.14F
$$

SDZ004>011-016>023-039-040-310000-
NORTHEAST SOUTH DAKOTA

CITY           SKY/WX    TMP DP  RH WIND       PRES   REMARKS
ABERDEEN       SUNNY     87  51  28 NW15G25   30.08S
WATERTOWN      SUNNY     84  58  40 W10       30.09F
BROOKINGS      SUNNY     82  54  36 W10       30.12F
SISSETON         N/A     84  58  40 NW13      30.04S
$$

SDZ017-020-022-023-036>040-048>070-310000-
SOUTHEAST SOUTH DAKOTA

CITY           SKY/WX    TMP DP  RH WIND       PRES   REMARKS
SIOUX FALLS    MOSUNNY   85  57  38 NW7       30.11F
HURON          SUNNY     87  54  32 W9        30.09S
CHAMBERLAIN    SUNNY     88  46  23 N6        30.12F
MITCHELL       SUNNY     90  57  32 CALM      30.10F
YANKTON        SUNNY     88  63  42 NW7       30.08F
$$

ABBREVIATIONS USED IN REMARKS
   TC - TEMPERATURE IN CELSIUS
  WCI - WIND CHILL INDEX
   HX - HEAT INDEX
  VSB - VISIBILITY



USA.gov is the U.S. government's official web portal to all federal, state and local government web resources and services.